Location: Observatoire
(46.1952°N, 5.3391°E)
Time: 01:51:57
(UTC+02:00)

DUCHIFAT 1 - Pass Details

Date: 03 May 2024
Orbit: 538 x 556 km, 98.1° (Epoch: 19 May)

Event Time Altitude Azimuth Distance (km) Brightness Sun altitude
Rises 05:37:55 0° 24° (NNE) 2,748 ? -7.5°
Reaches altitude 10° 05:40:18 10° 36° (NE) 1,844 ? -7.1°
Maximum altitude 05:43:45 28° 96° (E) 1,066 ? -6.6°
Drops below altitude 10° 05:47:09 10° 156° (SSE) 1,819 ? -6.1°
Sets 05:49:29 0° 168° (SSE) 2,703 ? -5.8°
